Weather in Salina Cruz

Mexico     16°11′48″N   95°12′05″W
temp.,
°C
wind,
m/s
gust,
m/s
humid.,
%
clouds,
%
prec.,
mm/h
press.,
hPa
HPBL,
m
16 may, sun
sun1601:00+26nnw237293 7.8 1013112
04:00+27nnw237193 3.5 1011150
07:00+26nnw2273100 3.5 101299
10:00+31nne235088 0.0 1013875
13:00+34ese3341100 0.0 10111688
16:00+33sse4348100 0.0 10091139
19:00+32ssw445318 0.0 1009786
22:00+28s236832 0.6 1012255
17 may, mon
mon1701:00+28ssw117070 0.9 101273
04:00+27w0170100 0.1 101056
07:00+27n1171100 0.1 101140
10:00+30se215695 0.0 1012815
13:00+33sse654968 0.0 10111395
16:00+32sse675154 0.0 10091248
19:00+30s576245 0.0 10091066
22:00+28s4774100 0.1 1012760
18 may, tue
tue1801:00+28ssw3675100 0.9 1012691
04:00+27ssw3677100 0.9 1011532
07:00+27ssw3679100 1.3 1011394
10:00+31s576066 0.2 10121390
13:00+33s785040 0.3 10101693
16:00+32s785463 0.0 10081473
19:00+30s69651 0.0 10081082
22:00+28ssw58756 0.0 1010953
19 may, wed
wed1901:00+28ssw487416 0.2 1010791
04:00+27ssw487334 0.1 1009668
07:00+27ssw377812 0.3 1010557
10:00+30s576127 0.4 10111294
13:00+33s89531 0.5 10101626
16:00+32s89550 0.0 10081462
19:00+29ssw686564 0.0 10081145
22:00+28ssw477490 0.0 1010782
20 may, thu
thu2001:00+27ssw367622 0.0 1010723
04:00+26ssw25805 0.0 1008330
07:00+26ssw22815 0.0 1009106
10:00+31s34565 0.0 10101329
13:00+32sse66505 0.0 10101395
16:00+32sse66523 0.0 10081160
19:00+30s45583 0.0 1008823
22:00+27s257283 0.0 1009430